{"data":{"norad_id":66440,"intl_designator":"2025-259U","name":"STARLINK-35405","alt_names":[],"object_type":"PAYLOAD","status":"ACTIVE","operator":null,"country":"US","launch_date":"2025-11-11","launch_site_code":"AFETR","launch_vehicle":null,"mission":null,"orbit_class":"UNKNOWN","rcs_meters":null,"size_class":null,"mass_kg":null,"dimensions":null,"purposes":["comms"],"wikipedia_slug":null,"has_3d_model":false,"image_url":null,"decayed_at":null,"tle_current":{"epoch":"2026-09-20T08:38:51.571968Z","epoch_age_seconds":105509,"freshness":"FRESH","line1":"1 66440U 25259U   26263.36031912  .00008410  00000+0  31479-3 0  9996","line2":"2 66440  43.0029 254.9447 0001245 255.4963 104.5750 15.27580610 49269","mean_motion":15.2758061,"eccentricity":0.0001245,"inclination_deg":43.0029,"raan_deg":254.9447,"arg_perigee_deg":255.4963,"mean_anomaly_deg":104.575,"bstar":0.00031479,"rev_number":4926,"period_min":94.266711070652,"perigee_km":482.19305203926,"apogee_km":483.90148692236,"semimajor_km":6861.1842694808,"source":"CELESTRAK","updated_at":"2026-09-21T09:00:35.909857Z"}}}